| time (UTC) | temp F | wind direction | speed MPH | gust MPH | rain 1hr in | rain 24hr in | rain mn in | humidity % | barometer mb |
| 20260901011158 | 79 | 313 | 5.0 | 8.0 | 0.00 | 0.00 | 0.00 | 75 | 1023.3 |
| 20260901010657 | 79 | 313 | 3.0 | 8.0 | 0.00 | 0.00 | 0.00 | 72 | 1023.2 |
| 20260901010158 | 79 | 313 | 3.0 | 8.0 | 0.00 | 0.00 | 0.00 | 71 | 1023.1 |
| 20260901005657 | 79 | 313 | 1.0 | 8.0 | 0.00 | 0.00 | 0.00 | 71 | 1023.1 |
| 20260901005158 | 79 | 313 | 2.0 | 8.0 | 0.00 | 0.00 | 0.00 | 71 | 1023.0 |
| 20260901004659 | 79 | 313 | 1.0 | 4.0 | 0.00 | 0.00 | 0.00 | 71 | 1023.0 |
| 20260901004159 | 79 | 0 | 0.0 | 4.0 | 0.00 | 0.00 | 0.00 | 71 | 1023.0 |
| 20260901003339 | 79 | 313 | 1.0 | 6.0 | 0.00 | 0.00 | 0.00 | 73 | 1022.9 |
| 20260901002839 | 78 | 313 | 1.0 | 6.0 | 0.00 | 0.00 | 0.00 | 74 | 1022.9 |
| 20260901002338 | 78 | 313 | 2.0 | 6.0 | 0.00 | 0.00 | 0.00 | 76 | 1022.9 |
| 20260901001838 | 78 | 313 | 2.0 | 8.0 | 0.00 | 0.00 | 0.00 | 78 | 1022.9 |
| 20260901001338 | 78 | 313 | 3.0 | 8.0 | 0.00 | 0.00 | 0.00 | 78 | 1022.8 |
| 20260901000840 | 79 | 313 | 3.0 | 6.0 | 0.00 | 0.00 | 0.00 | 78 | 1022.8 |
| 20260901000339 | 79 | 313 | 2.0 | 5.0 | 0.00 | 0.00 | 0.00 | 79 | 1022.8 |
| 20260831235838 | 79 | 313 | 1.0 | 5.0 | 0.00 | 0.00 | 0.00 | 77 | 1022.7 |
| 20260831235340 | 80 | 0 | 0.0 | 3.0 | 0.00 | 0.00 | 0.00 | 75 | 1022.7 |
| 20260831234840 | 80 | 313 | 1.0 | 5.0 | 0.00 | 0.00 | 0.00 | 74 | 1022.7 |
| 20260831234338 | 80 | 313 | 1.0 | 5.0 | 0.00 | 0.00 | 0.00 | 76 | 1022.7 |
| 20260831233838 | 80 | 0 | 0.0 | 2.0 | 0.00 | 0.00 | 0.00 | 74 | 1022.7 |
| 20260831233338 | 81 | 0 | 0.0 | 0.0 | 0.00 | 0.00 | 0.00 | 72 | 1022.7 |
| 20260831232838 | 81 | 0 | 0.0 | 0.0 | 0.00 | 0.00 | 0.00 | 72 | 1022.7 |
| 20260831232338 | 81 | 0 | 0.0 | 0.0 | 0.00 | 0.00 | 0.00 | 71 | 1022.7 |
| 20260831231838 | 81 | 0 | 0.0 | 0.0 | 0.00 | 0.00 | 0.00 | 72 | 1022.8 |
| 20260831231339 | 82 | 0 | 0.0 | 0.0 | 0.00 | 0.00 | 0.00 | 70 | 1022.9 |
| 20260831230838 | 82 | 0 | 0.0 | 0.0 | 0.00 | 0.00 | 0.00 | 71 | 1022.9 |
| 20260831230338 | 82 | 0 | 0.0 | 0.0 | 0.00 | 0.00 | 0.00 | 70 | 1023.0 |
| 20260831225841 | 82 | 0 | 0.0 | 0.0 | 0.00 | 0.00 | 0.00 | 70 | 1022.9 |
| 20260831225338 | 83 | 0 | 0.0 | 1.0 | 0.00 | 0.00 | 0.00 | 69 | 1023.0 |
| 20260831224838 | 83 | 0 | 0.0 | 1.0 | 0.00 | 0.00 | 0.00 | 67 | 1023.0 |
| 20260831224338 | 83 | 0 | 0.0 | 0.0 | 0.00 | 0.00 | 0.00 | 67 | 1022.9 |
| 20260831223838 | 83 | 0 | 0.0 | 0.0 | 0.00 | 0.00 | 0.00 | 67 | 1023.0 |
| 20260831223338 | 83 | 0 | 0.0 | 0.0 | 0.00 | 0.00 | 0.00 | 65 | 1023.0 |
| 20260831222838 | 83 | 0 | 0.0 | 0.0 | 0.00 | 0.00 | 0.00 | 64 | 1023.0 |
| 20260831222338 | 83 | 0 | 0.0 | 0.0 | 0.00 | 0.00 | 0.00 | 64 | 1023.0 |
| 20260831221838 | 83 | 0 | 0.0 | 0.0 | 0.00 | 0.00 | 0.00 | 64 | 1023.0 |
| 20260831221338 | 84 | 0 | 0.0 | 0.0 | 0.00 | 0.00 | 0.00 | 64 | 1022.0 |
| 20260831220838 | 84 | 0 | 0.0 | 1.0 | 0.00 | 0.00 | 0.00 | 65 | 1022.1 |
| 20260831220338 | 84 | 0 | 0.0 | 2.0 | 0.00 | 0.00 | 0.00 | 65 | 1022.1 |
| 20260831215838 | 84 | 0 | 0.0 | 2.0 | 0.00 | 0.00 | 0.00 | 66 | 1022.1 |
| 20260831215338 | 84 | 0 | 0.0 | 2.0 | 0.00 | 0.00 | 0.00 | 64 | 1022.1 |
| 20260831214838 | 85 | 0 | 0.0 | 3.0 | 0.00 | 0.00 | 0.00 | 61 | 1022.1 |
| 20260831214338 | 85 | 0 | 0.0 | 3.0 | 0.00 | 0.00 | 0.00 | 64 | 1022.1 |
| 20260831213839 | 85 | 0 | 0.0 | 3.0 | 0.00 | 0.00 | 0.00 | 63 | 1022.2 |
| 20260831213341 | 85 | 0 | 0.0 | 1.0 | 0.00 | 0.00 | 0.00 | 61 | 1022.1 |
| 20260831212838 | 85 | 0 | 0.0 | 0.0 | 0.00 | 0.00 | 0.00 | 62 | 1022.2 |
| 20260831212340 | 85 | 0 | 0.0 | 0.0 | 0.00 | 0.00 | 0.00 | 60 | 1022.3 |
| 20260831211838 | 85 | 0 | 0.0 | 1.0 | 0.00 | 0.00 | 0.00 | 63 | 1022.3 |
| 20260831211338 | 85 | 0 | 0.0 | 3.0 | 0.00 | 0.00 | 0.00 | 63 | 1022.3 |
| 20260831210838 | 85 | 0 | 0.0 | 3.0 | 0.00 | 0.00 | 0.00 | 62 | 1022.3 |
| 20260831210338 | 86 | 313 | 1.0 | 3.0 | 0.00 | 0.00 | 0.00 | 61 | 1022.3 |
| 20260831205838 | 87 | 0 | 0.0 | 3.0 | 0.00 | 0.00 | 0.00 | 60 | 1022.3 |
| 20260831205340 | 88 | 0 | 0.0 | 1.0 | 0.00 | 0.00 | 0.00 | 56 | 1022.3 |
| 20260831204838 | 88 | 0 | 0.0 | 1.0 | 0.00 | 0.00 | 0.00 | 56 | 1022.4 |
| 20260831204338 | 88 | 0 | 0.0 | 2.0 | 0.00 | 0.00 | 0.00 | 55 | 1022.5 |
| 20260831203838 | 88 | 0 | 0.0 | 2.0 | 0.00 | 0.00 | 0.00 | 56 | 1022.5 |
| 20260831203338 | 88 | 0 | 0.0 | 2.0 | 0.00 | 0.00 | 0.00 | 55 | 1022.4 |
| 20260831202838 | 88 | 0 | 0.0 | 2.0 | 0.00 | 0.00 | 0.00 | 54 | 1022.4 |
| 20260831202338 | 87 | 0 | 0.0 | 2.0 | 0.00 | 0.00 | 0.00 | 55 | 1022.5 |
| 20260831201839 | 87 | 0 | 0.0 | 2.0 | 0.00 | 0.00 | 0.00 | 57 | 1022.6 |
| 20260831201338 | 87 | 0 | 0.0 | 2.0 | 0.00 | 0.00 | 0.00 | 55 | 1022.7 |
| 20260831200839 | 87 | 0 | 0.0 | 2.0 | 0.00 | 0.00 | 0.00 | 59 | 1022.7 |
| 20260831200338 | 87 | 0 | 0.0 | 3.0 | 0.00 | 0.00 | 0.00 | 59 | 1022.8 |
| 20260831195838 | 87 | 0 | 0.0 | 3.0 | 0.00 | 0.00 | 0.00 | 61 | 1022.8 |
| 20260831195026 | 86 | 0 | 0.0 | 3.0 | 0.00 | 0.00 | 0.00 | 59 | 1022.9 |
| 20260831194525 | 85 | 0 | 0.0 | 2.0 | 0.00 | 0.00 | 0.00 | 65 | 1023.0 |
| 20260831194025 | 85 | 0 | 0.0 | 2.0 | 0.00 | 0.00 | 0.00 | 62 | 1022.9 |
| 20260831193525 | 84 | 0 | 0.0 | 1.0 | 0.00 | 0.00 | 0.00 | 64 | 1022.9 |
| 20260831193026 | 84 | 0 | 0.0 | 1.0 | 0.00 | 0.00 | 0.00 | 65 | 1023.0 |
| 20260831192525 | 84 | 0 | 0.0 | 2.0 | 0.00 | 0.00 | 0.00 | 64 | 1023.0 |
| 20260831192028 | 84 | 0 | 0.0 | 2.0 | 0.00 | 0.00 | 0.00 | 63 | 1023.1 |
| 20260831191525 | 83 | 0 | 0.0 | 2.0 | 0.00 | 0.00 | 0.00 | 67 | 1023.2 |
| 20260831191025 | 82 | 0 | 0.0 | 2.0 | 0.00 | 0.00 | 0.00 | 67 | 1023.1 |
| 20260831190526 | 82 | 0 | 0.0 | 1.0 | 0.00 | 0.00 | 0.00 | 68 | 1023.1 |
| 20260831190025 | 82 | 0 | 0.0 | 1.0 | 0.00 | 0.00 | 0.00 | 69 | 1023.2 |
| 20260831185528 | 81 | 0 | 0.0 | 0.0 | 0.00 | 0.00 | 0.00 | 68 | 1023.3 |
| 20260831185025 | 81 | 0 | 0.0 | 3.0 | 0.00 | 0.00 | 0.00 | 69 | 1023.3 |
| 20260831184526 | 81 | 0 | 0.0 | 3.0 | 0.00 | 0.00 | 0.00 | 68 | 1023.4 |
| 20260831184026 | 81 | 0 | 0.0 | 2.0 | 0.00 | 0.00 | 0.00 | 71 | 1023.4 |
| 20260831183526 | 80 | 0 | 0.0 | 0.0 | 0.00 | 0.00 | 0.00 | 70 | 1023.4 |
| 20260831183025 | 79 | 0 | 0.0 | 0.0 | 0.00 | 0.00 | 0.00 | 69 | 1023.5 |
| 20260831182525 | 78 | 0 | 0.0 | 2.0 | 0.00 | 0.00 | 0.00 | 69 | 1023.6 |
| 20260831182025 | 77 | 0 | 0.0 | 8.0 | 0.00 | 0.00 | 0.00 | 67 | 1023.6 |
| 20260831181525 | 77 | 313 | 1.0 | 9.0 | 0.00 | 0.00 | 0.00 | 67 | 1023.7 |
| 20260831181025 | 76 | 313 | 3.0 | 10.0 | 0.00 | 0.00 | 0.00 | 77 | 1023.8 |
| 20260831180525 | 77 | 313 | 4.0 | 10.0 | 0.00 | 0.00 | 0.00 | 79 | 1023.7 |
| 20260831180026 | 78 | 311 | 5.0 | 11.0 | 0.00 | 0.00 | 0.00 | 75 | 1023.7 |
| 20260831175525 | 80 | 309 | 6.0 | 11.0 | 0.00 | 0.00 | 0.00 | 70 | 1023.7 |
| 20260831175026 | 83 | 295 | 4.0 | 7.0 | 0.00 | 0.00 | 0.00 | 68 | 1023.8 |
| 20260831174525 | 85 | 0 | 0.0 | 0.0 | 0.00 | 0.00 | 0.00 | 64 | 1023.9 |
| 20260831173805 | 85 | 0 | 0.0 | 4.0 | 0.00 | 0.00 | 0.00 | 63 | 1023.9 |
| 20260831173305 | 85 | 295 | 1.0 | 4.0 | 0.00 | 0.00 | 0.00 | 62 | 1023.8 |
| 20260831172805 | 85 | 295 | 2.0 | 4.0 | 0.00 | 0.00 | 0.00 | 59 | 1023.9 |
| 20260831172308 | 85 | 295 | 1.0 | 4.0 | 0.00 | 0.00 | 0.00 | 64 | 1023.8 |
| 20260831171811 | 84 | 295 | 2.0 | 4.0 | 0.00 | 0.00 | 0.00 | 63 | 1023.9 |
| 20260831171310 | 84 | 295 | 2.0 | 4.0 | 0.00 | 0.00 | 0.00 | 65 | 1023.9 |
| 20260831170805 | 84 | 0 | 0.0 | 4.0 | 0.00 | 0.00 | 0.00 | 69 | 1023.8 |
| 20260831170305 | 84 | 0 | 0.0 | 7.0 | 0.00 | 0.00 | 0.00 | 67 | 1023.8 |
| 20260831165805 | 84 | 295 | 1.0 | 7.0 | 0.00 | 0.00 | 0.00 | 66 | 1023.8 |
| 20260831165315 | 84 | 0 | 0.0 | 4.0 | 0.00 | 0.00 | 0.00 | 68 | 1023.8 |
| 20260831164805 | 84 | 0 | 0.0 | 4.0 | 0.00 | 0.00 | 0.00 | 68 | 1023.9 |
| 20260831164447 | 84 | 0 | 0.0 | 4.0 | 0.00 | 0.00 | 0.00 | 68 | 1024.0 |
| 20260831164305 | 84 | 0 | 0.0 | 4.0 | 0.00 | 0.00 | 0.00 | 68 | 1024.0 |
| 20260831163805 | 84 | 0 | 0.0 | 4.0 | 0.00 | 0.00 | 0.00 | 69 | 1024.1 |
| 20260831163305 | 84 | 0 | 0.0 | 7.0 | 0.00 | 0.00 | 0.00 | 70 | 1024.1 |
| 20260831162805 | 83 | 295 | 1.0 | 7.0 | 0.00 | 0.00 | 0.00 | 70 | 1024.2 |
| 20260831162306 | 83 | 295 | 2.0 | 7.0 | 0.00 | 0.00 | 0.00 | 69 | 1024.2 |
| 20260831161805 | 84 | 295 | 1.0 | 7.0 | 0.00 | 0.00 | 0.00 | 69 | 1024.2 |
| 20260831161305 | 84 | 0 | 0.0 | 4.0 | 0.00 | 0.00 | 0.00 | 68 | 1024.3 |
| 20260831160805 | 83 | 0 | 0.0 | 4.0 | 0.00 | 0.00 | 0.00 | 67 | 1024.2 |
| 20260831160305 | 84 | 0 | 0.0 | 1.0 | 0.00 | 0.00 | 0.00 | 71 | 1024.1 |
| 20260831155845 | 83 | 0 | 0.0 | 3.0 | 0.00 | 0.00 | 0.00 | 70 | 1024.2 |
| 20260831155805 | 83 | 0 | 0.0 | 3.0 | 0.00 | 0.00 | 0.00 | 70 | 1024.2 |
| 20260831155306 | 83 | 0 | 0.0 | 3.0 | 0.00 | 0.00 | 0.00 | 69 | 1024.3 |
| 20260831154806 | 83 | 0 | 0.0 | 0.0 | 0.00 | 0.00 | 0.00 | 68 | 1024.2 |
| 20260831154305 | 82 | 0 | 0.0 | 3.0 | 0.00 | 0.00 | 0.00 | 72 | 1024.3 |
| 20260831153805 | 82 | 0 | 0.0 | 3.0 | 0.00 | 0.00 | 0.00 | 75 | 1024.3 |
| 20260831153305 | 81 | 0 | 0.0 | 2.0 | 0.00 | 0.00 | 0.00 | 76 | 1024.3 |
| 20260831152805 | 81 | 0 | 0.0 | 4.0 | 0.00 | 0.00 | 0.00 | 75 | 1024.3 |
| 20260831152308 | 80 | 295 | 2.0 | 5.0 | 0.00 | 0.00 | 0.00 | 75 | 1024.3 |
| 20260831151805 | 80 | 295 | 1.0 | 5.0 | 0.00 | 0.00 | 0.00 | 75 | 1024.3 |
| 20260831151307 | 80 | 0 | 0.0 | 4.0 | 0.00 | 0.00 | 0.00 | 76 | 1024.3 |
| 20260831150806 | 80 | 0 | 0.0 | 4.0 | 0.00 | 0.00 | 0.00 | 75 | 1024.4 |
| 20260831150307 | 80 | 0 | 0.0 | 3.0 | 0.00 | 0.00 | 0.00 | 77 | 1024.3 |
| 20260831145807 | 80 | 0 | 0.0 | 4.0 | 0.00 | 0.00 | 0.00 | 76 | 1024.3 |
| 20260831145307 | 79 | 0 | 0.0 | 4.0 | 0.00 | 0.00 | 0.00 | 75 | 1024.3 |
| 20260831144805 | 80 | 0 | 0.0 | 4.0 | 0.00 | 0.00 | 0.00 | 75 | 1024.3 |
| 20260831144305 | 80 | 295 | 1.0 | 8.0 | 0.00 | 0.00 | 0.00 | 75 | 1024.3 |
| 20260831143805 | 80 | 0 | 0.0 | 8.0 | 0.00 | 0.00 | 0.00 | 76 | 1024.3 |
| 20260831143305 | 80 | 0 | 0.0 | 3.0 | 0.00 | 0.00 | 0.00 | 76 | 1024.3 |
| 20260831142807 | 79 | 0 | 0.0 | 2.0 | 0.00 | 0.00 | 0.00 | 76 | 1024.2 |
| 20260831142306 | 79 | 0 | 0.0 | 0.0 | 0.00 | 0.00 | 0.00 | 79 | 1024.2 |
| 20260831141804 | 78 | 0 | 0.0 | 3.0 | 0.00 | 0.00 | 0.00 | 80 | 1024.2 |
| 20260831141308 | 77 | 0 | 0.0 | 3.0 | 0.00 | 0.00 | 0.00 | 81 | 1024.2 |
| 20260831140805 | 77 | 0 | 0.0 | 4.0 | 0.00 | 0.00 | 0.00 | 81 | 1024.1 |
| 20260831140307 | 76 | 0 | 0.0 | 4.0 | 0.00 | 0.00 | 0.00 | 82 | 1024.0 |
| 20260831135807 | 77 | 0 | 0.0 | 4.0 | 0.00 | 0.00 | 0.00 | 82 | 1024.0 |
| 20260831135315 | 77 | 0 | 0.0 | 3.0 | 0.00 | 0.00 | 0.00 | 81 | 1024.1 |
| 20260831134809 | 77 | 0 | 0.0 | 3.0 | 0.00 | 0.00 | 0.00 | 81 | 1024.0 |
| 20260831134306 | 76 | 0 | 0.0 | 3.0 | 0.00 | 0.00 | 0.00 | 81 | 1024.0 |
| 20260831133806 | 76 | 0 | 0.0 | 1.0 | 0.00 | 0.00 | 0.00 | 82 | 1024.1 |
| 20260831133305 | 76 | 0 | 0.0 | 2.0 | 0.00 | 0.00 | 0.00 | 83 | 1024.1 |
| 20260831132806 | 76 | 0 | 0.0 | 2.0 | 0.00 | 0.00 | 0.00 | 82 | 1024.1 |
| 20260831132307 | 76 | 0 | 0.0 | 4.0 | 0.00 | 0.00 | 0.00 | 82 | 1024.1 |
| 20260831131805 | 76 | 0 | 0.0 | 4.0 | 0.00 | 0.00 | 0.00 | 81 | 1024.1 |
| 20260831131305 | 76 | 0 | 0.0 | 4.0 | 0.00 | 0.00 | 0.00 | 82 | 1024.1 |
| 20260831130806 | 75 | 0 | 0.0 | 3.0 | 0.00 | 0.00 | 0.00 | 83 | 1024.1 |
| 20260831130304 | 75 | 0 | 0.0 | 2.0 | 0.00 | 0.00 | 0.00 | 84 | 1024.1 |
| 20260831125804 | 74 | 0 | 0.0 | 4.0 | 0.00 | 0.00 | 0.00 | 84 | 1024.0 |
| 20260831125306 | 74 | 0 | 0.0 | 5.0 | 0.00 | 0.00 | 0.00 | 85 | 1024.1 |
| 20260831124805 | 74 | 0 | 0.0 | 5.0 | 0.00 | 0.00 | 0.00 | 84 | 1024.1 |
| 20260831124305 | 74 | 0 | 0.0 | 5.0 | 0.00 | 0.00 | 0.00 | 84 | 1024.1 |
| 20260831123806 | 74 | 0 | 0.0 | 5.0 | 0.00 | 0.00 | 0.00 | 84 | 1024.0 |
| 20260831123304 | 74 | 0 | 0.0 | 5.0 | 0.00 | 0.00 | 0.00 | 84 | 1024.0 |
| 20260831122809 | 74 | 0 | 0.0 | 5.0 | 0.00 | 0.00 | 0.00 | 83 | 1024.1 |
| 20260831122306 | 74 | 295 | 1.0 | 5.0 | 0.00 | 0.00 | 0.00 | 84 | 1024.0 |
| 20260831121504 | 74 | 0 | 0.0 | 5.0 | 0.00 | 0.00 | 0.00 | 84 | 1024.0 |
| 20260831121004 | 74 | 0 | 0.0 | 5.0 | 0.00 | 0.00 | 0.00 | 84 | 1023.9 |
| 20260831120504 | 73 | 0 | 0.0 | 3.0 | 0.00 | 0.00 | 0.00 | 85 | 1023.8 |
| 20260831120006 | 73 | 0 | 0.0 | 10.0 | 0.00 | 0.00 | 0.00 | 86 | 1023.9 |
| 20260831115504 | 73 | 0 | 0.0 | 10.0 | 0.00 | 0.00 | 0.00 | 87 | 1023.9 |
| 20260831115004 | 72 | 0 | 0.0 | 3.0 | 0.00 | 0.00 | 0.00 | 88 | 1023.9 |
| 20260831114421 | 72 | 0 | 0.0 | 4.0 | 0.00 | 0.00 | 0.00 | 89 | 1023.9 |
| 20260831113922 | 72 | 0 | 0.0 | 4.0 | 0.00 | 0.00 | 0.00 | 88 | 1024.0 |
| 20260831113425 | 73 | 0 | 0.0 | 3.0 | 0.00 | 0.00 | 0.00 | 87 | 1023.9 |
| 20260831112921 | 73 | 0 | 0.0 | 1.0 | 0.00 | 0.00 | 0.00 | 87 | 1023.9 |
| 20260831112421 | 73 | 0 | 0.0 | 1.0 | 0.00 | 0.00 | 0.00 | 86 | 1023.9 |
| 20260831111924 | 73 | 0 | 0.0 | 3.0 | 0.00 | 0.00 | 0.00 | 86 | 1023.8 |
| 20260831111424 | 73 | 0 | 0.0 | 5.0 | 0.00 | 0.00 | 0.00 | 85 | 1023.8 |
| 20260831110921 | 73 | 0 | 0.0 | 5.0 | 0.00 | 0.00 | 0.00 | 85 | 1023.7 |
| 20260831110421 | 73 | 0 | 0.0 | 4.0 | 0.00 | 0.00 | 0.00 | 86 | 1023.7 |
| 20260831105931 | 73 | 0 | 0.0 | 9.0 | 0.00 | 0.00 | 0.00 | 85 | 1023.5 |
| 20260831105422 | 73 | 300 | 1.0 | 9.0 | 0.00 | 0.00 | 0.00 | 85 | 1023.6 |
| 20260831104922 | 73 | 0 | 0.0 | 4.0 | 0.00 | 0.00 | 0.00 | 85 | 1023.5 |
| 20260831104424 | 73 | 0 | 0.0 | 4.0 | 0.00 | 0.00 | 0.00 | 85 | 1023.5 |
| 20260831103921 | 72 | 0 | 0.0 | 4.0 | 0.00 | 0.00 | 0.00 | 85 | 1023.5 |
| 20260831103423 | 72 | 0 | 0.0 | 4.0 | 0.00 | 0.00 | 0.00 | 85 | 1023.5 |
| 20260831102922 | 72 | 0 | 0.0 | 5.0 | 0.00 | 0.00 | 0.00 | 85 | 1023.5 |
| 20260831102421 | 72 | 0 | 0.0 | 5.0 | 0.00 | 0.00 | 0.00 | 85 | 1023.5 |
| 20260831101921 | 72 | 0 | 0.0 | 3.0 | 0.00 | 0.00 | 0.00 | 86 | 1023.4 |
| 20260831101421 | 72 | 0 | 0.0 | 3.0 | 0.00 | 0.00 | 0.00 | 87 | 1023.3 |
| 20260831100924 | 71 | 0 | 0.0 | 2.0 | 0.00 | 0.00 | 0.00 | 87 | 1023.3 |
| 20260831100421 | 71 | 0 | 0.0 | 3.0 | 0.00 | 0.00 | 0.00 | 88 | 1023.3 |
| 20260831095922 | 71 | 0 | 0.0 | 3.0 | 0.00 | 0.00 | 0.00 | 89 | 1023.3 |
| 20260831095422 | 71 | 0 | 0.0 | 2.0 | 0.00 | 0.00 | 0.00 | 90 | 1023.2 |
| 20260831094926 | 71 | 0 | 0.0 | 2.0 | 0.00 | 0.00 | 0.00 | 90 | 1023.2 |
| 20260831094421 | 72 | 0 | 0.0 | 2.0 | 0.00 | 0.00 | 0.00 | 88 | 1023.2 |
| 20260831093921 | 73 | 0 | 0.0 | 2.0 | 0.00 | 0.00 | 0.00 | 85 | 1023.2 |
| 20260831093422 | 73 | 0 | 0.0 | 3.0 | 0.00 | 0.00 | 0.00 | 83 | 1023.2 |
| 20260831092921 | 73 | 0 | 0.0 | 3.0 | 0.00 | 0.00 | 0.00 | 83 | 1023.1 |
| 20260831092423 | 73 | 0 | 0.0 | 3.0 | 0.00 | 0.00 | 0.00 | 84 | 1023.1 |
| 20260831091921 | 73 | 0 | 0.0 | 3.0 | 0.00 | 0.00 | 0.00 | 84 | 1023.1 |
| 20260831091421 | 73 | 0 | 0.0 | 4.0 | 0.00 | 0.00 | 0.00 | 85 | 1023.1 |
| 20260831090921 | 73 | 0 | 0.0 | 4.0 | 0.00 | 0.00 | 0.00 | 85 | 1023.1 |
| 20260831090423 | 72 | 0 | 0.0 | 4.0 | 0.00 | 0.00 | 0.00 | 85 | 1023.1 |
| 20260831085922 | 72 | 0 | 0.0 | 7.0 | 0.00 | 0.00 | 0.00 | 86 | 1023.1 |
| 20260831085421 | 72 | 0 | 0.0 | 7.0 | 0.00 | 0.00 | 0.00 | 86 | 1023.2 |
| 20260831084921 | 72 | 0 | 0.0 | 2.0 | 0.00 | 0.00 | 0.00 | 86 | 1023.3 |
| 20260831084421 | 72 | 0 | 0.0 | 3.0 | 0.00 | 0.00 | 0.00 | 86 | 1023.2 |
| 20260831083921 | 72 | 0 | 0.0 | 3.0 | 0.00 | 0.00 | 0.00 | 86 | 1023.2 |
| 20260831083421 | 72 | 0 | 0.0 | 4.0 | 0.00 | 0.00 | 0.00 | 86 | 1023.2 |
| 20260831082921 | 72 | 0 | 0.0 | 4.0 | 0.00 | 0.00 | 0.00 | 86 | 1023.2 |
| 20260831082422 | 72 | 0 | 0.0 | 3.0 | 0.00 | 0.00 | 0.00 | 86 | 1023.2 |
| 20260831081924 | 72 | 0 | 0.0 | 4.0 | 0.00 | 0.00 | 0.00 | 86 | 1023.2 |
| 20260831081421 | 72 | 0 | 0.0 | 4.0 | 0.00 | 0.00 | 0.00 | 86 | 1023.2 |
| 20260831080921 | 72 | 0 | 0.0 | 2.0 | 0.00 | 0.00 | 0.00 | 86 | 1023.2 |
| 20260831080421 | 72 | 0 | 0.0 | 3.0 | 0.00 | 0.00 | 0.00 | 86 | 1023.2 |
| 20260831075922 | 72 | 0 | 0.0 | 4.0 | 0.00 | 0.00 | 0.00 | 87 | 1023.2 |
| 20260831075421 | 72 | 0 | 0.0 | 5.0 | 0.00 | 0.00 | 0.00 | 87 | 1023.1 |
| 20260831074923 | 72 | 0 | 0.0 | 11.0 | 0.00 | 0.00 | 0.00 | 87 | 1023.1 |
| 20260831074421 | 72 | 308 | 2.0 | 11.0 | 0.00 | 0.00 | 0.00 | 87 | 1023.1 |
| 20260831073921 | 72 | 306 | 3.0 | 9.0 | 0.00 | 0.00 | 0.00 | 88 | 1023.1 |
| 20260831073421 | 72 | 306 | 4.0 | 9.0 | 0.00 | 0.00 | 0.00 | 88 | 1023.1 |
| 20260831072921 | 72 | 304 | 4.0 | 8.0 | 0.00 | 0.00 | 0.00 | 88 | 1023.1 |
| 20260831072421 | 72 | 304 | 3.0 | 8.0 | 0.00 | 0.00 | 0.00 | 88 | 1023.1 |
| 20260831071921 | 72 | 303 | 2.0 | 8.0 | 0.00 | 0.00 | 0.00 | 88 | 1023.2 |
| 20260831071421 | 72 | 303 | 3.0 | 7.0 | 0.00 | 0.00 | 0.00 | 87 | 1023.2 |
| 20260831070921 | 72 | 303 | 3.0 | 7.0 | 0.00 | 0.00 | 0.00 | 87 | 1023.2 |
| 20260831070422 | 72 | 303 | 2.0 | 9.0 | 0.00 | 0.00 | 0.00 | 87 | 1023.2 |
| 20260831065922 | 73 | 303 | 3.0 | 9.0 | 0.00 | 0.00 | 0.00 | 87 | 1023.2 |
| 20260831065421 | 73 | 302 | 3.0 | 9.0 | 0.00 | 0.00 | 0.00 | 87 | 1023.2 |
| 20260831064923 | 73 | 302 | 3.0 | 9.0 | 0.00 | 0.00 | 0.00 | 87 | 1023.2 |
| 20260831064421 | 73 | 302 | 4.0 | 11.0 | 0.00 | 0.00 | 0.00 | 87 | 1023.3 |
| 20260831063922 | 73 | 302 | 5.0 | 11.0 | 0.00 | 0.00 | 0.00 | 86 | 1023.4 |
| 20260831063421 | 73 | 297 | 5.0 | 10.0 | 0.00 | 0.00 | 0.00 | 87 | 1023.4 |
| 20260831062930 | 73 | 295 | 5.0 | 10.0 | 0.00 | 0.00 | 0.00 | 86 | 1023.4 |
| 20260831062421 | 72 | 294 | 4.0 | 9.0 | 0.00 | 0.00 | 0.00 | 87 | 1023.5 |
| 20260831061921 | 72 | 288 | 5.0 | 9.0 | 0.00 | 0.00 | 0.00 | 87 | 1023.5 |
| 20260831061421 | 72 | 282 | 5.0 | 9.0 | 0.00 | 0.00 | 0.00 | 87 | 1023.6 |
| 20260831060921 | 72 | 280 | 3.0 | 9.0 | 0.00 | 0.00 | 0.00 | 88 | 1023.6 |
| 20260831060421 | 72 | 277 | 3.0 | 10.0 | 0.00 | 0.00 | 0.00 | 88 | 1023.6 |
| 20260831055922 | 72 | 277 | 3.0 | 10.0 | 0.00 | 0.00 | 0.00 | 88 | 1023.6 |
| 20260831055422 | 72 | 268 | 4.0 | 9.0 | 0.00 | 0.00 | 0.00 | 88 | 1023.7 |
| 20260831054922 | 72 | 267 | 4.0 | 9.0 | 0.00 | 0.00 | 0.00 | 89 | 1023.8 |
| 20260831054421 | 72 | 262 | 5.0 | 8.0 | 0.00 | 0.00 | 0.00 | 89 | 1023.8 |
| 20260831053921 | 72 | 254 | 3.0 | 7.0 | 0.00 | 0.00 | 0.00 | 89 | 1023.8 |
| 20260831053421 | 72 | 250 | 2.0 | 5.0 | 0.00 | 0.00 | 0.00 | 89 | 1023.8 |
| 20260831052921 | 72 | 249 | 1.0 | 5.0 | 0.00 | 0.00 | 0.00 | 89 | 1023.8 |
| 20260831052421 | 72 | 248 | 1.0 | 5.0 | 0.00 | 0.00 | 0.00 | 89 | 1023.8 |
| 20260831051921 | 72 | 0 | 0.0 | 5.0 | 0.00 | 0.00 | 0.00 | 89 | 1023.9 |
| 20260831051421 | 72 | 0 | 0.0 | 5.0 | 0.00 | 0.00 | 0.00 | 89 | 1023.9 |
| 20260831050921 | 72 | 0 | 0.0 | 4.0 | 0.00 | 0.00 | 0.00 | 89 | 1024.0 |
| 20260831050423 | 73 | 0 | 0.0 | 4.0 | 0.00 | 0.00 | 0.00 | 88 | 1023.9 |
| 20260831045921 | 72 | 0 | 0.0 | 3.0 | 0.00 | 0.00 | 0.00 | 88 | 1023.9 |
| 20260831045421 | 72 | 0 | 0.0 | 4.0 | 0.00 | 0.00 | 0.00 | 88 | 1023.9 |
| 20260831044922 | 72 | 0 | 0.0 | 4.0 | 0.00 | 0.00 | 0.00 | 88 | 1023.9 |
| 20260831044421 | 72 | 0 | 0.0 | 4.0 | 0.00 | 0.00 | 0.00 | 88 | 1024.0 |
| 20260831043921 | 72 | 0 | 0.0 | 2.0 | 0.00 | 0.00 | 0.00 | 88 | 1023.9 |
| 20260831043421 | 73 | 0 | 0.0 | 5.0 | 0.00 | 0.00 | 0.00 | 88 | 1024.0 |
| 20260831042927 | 72 | 0 | 0.0 | 5.0 | 0.00 | 0.00 | 0.00 | 88 | 1024.0 |
| 20260831042421 | 73 | 0 | 0.0 | 5.0 | 0.00 | 0.00 | 0.00 | 88 | 1024.0 |
| 20260831041923 | 73 | 0 | 0.0 | 5.0 | 0.00 | 0.00 | 0.00 | 89 | 1024.0 |
| 20260831041421 | 73 | 0 | 0.0 | 6.0 | 0.00 | 0.00 | 0.00 | 89 | 1024.1 |
| 20260831041001 | 73 | 0 | 0.0 | 6.0 | 0.00 | 0.00 | 0.00 | 88 | 1024.2 |
| 20260831040920 | 73 | 0 | 0.0 | 6.0 | 0.00 | 0.00 | 0.00 | 88 | 1024.2 |
| 20260831040423 | 73 | 0 | 0.0 | 5.0 | 0.00 | 0.00 | 0.00 | 88 | 1024.2 |
| 20260831035921 | 73 | 0 | 0.0 | 3.0 | 0.00 | 0.00 | 0.00 | 87 | 1024.3 |
| 20260831035421 | 73 | 0 | 0.0 | 3.0 | 0.00 | 0.00 | 0.00 | 87 | 1024.3 |
| 20260831034922 | 74 | 0 | 0.0 | 2.0 | 0.00 | 0.00 | 0.00 | 86 | 1024.3 |
| 20260831034421 | 74 | 0 | 0.0 | 2.0 | 0.00 | 0.00 | 0.00 | 84 | 1024.3 |
| 20260831033921 | 74 | 0 | 0.0 | 2.0 | 0.00 | 0.00 | 0.00 | 84 | 1024.3 |
| 20260831033430 | 74 | 0 | 0.0 | 2.0 | 0.00 | 0.00 | 0.00 | 84 | 1024.2 |
| 20260831032923 | 74 | 0 | 0.0 | 5.0 | 0.00 | 0.00 | 0.00 | 84 | 1024.2 |
| 20260831032421 | 74 | 0 | 0.0 | 5.0 | 0.00 | 0.00 | 0.00 | 84 | 1024.2 |
| 20260831031921 | 73 | 208 | 1.0 | 5.0 | 0.00 | 0.00 | 0.00 | 85 | 1024.2 |
| 20260831031421 | 73 | 0 | 0.0 | 6.0 | 0.00 | 0.00 | 0.00 | 85 | 1024.3 |
| 20260831030921 | 73 | 0 | 0.0 | 6.0 | 0.00 | 0.00 | 0.00 | 85 | 1024.3 |
| 20260831030421 | 73 | 0 | 0.0 | 2.0 | 0.00 | 0.00 | 0.00 | 85 | 1024.3 |
| 20260831025922 | 73 | 0 | 0.0 | 4.0 | 0.00 | 0.00 | 0.00 | 85 | 1024.4 |
| 20260831025421 | 73 | 0 | 0.0 | 4.0 | 0.00 | 0.00 | 0.00 | 85 | 1024.4 |
| 20260831024920 | 73 | 0 | 0.0 | 2.0 | 0.00 | 0.00 | 0.00 | 85 | 1024.5 |
| 20260831024421 | 73 | 0 | 0.0 | 1.0 | 0.00 | 0.00 | 0.00 | 85 | 1024.6 |
| 20260831023924 | 73 | 0 | 0.0 | 3.0 | 0.00 | 0.00 | 0.00 | 84 | 1024.6 |
| 20260831023424 | 73 | 0 | 0.0 | 3.0 | 0.00 | 0.00 | 0.00 | 85 | 1024.7 |
| 20260831022922 | 73 | 0 | 0.0 | 2.0 | 0.00 | 0.00 | 0.00 | 84 | 1024.7 |
| 20260831022421 | 74 | 0 | 0.0 | 1.0 | 0.00 | 0.00 | 0.00 | 84 | 1024.7 |
| 20260831021921 | 74 | 0 | 0.0 | 6.0 | 0.00 | 0.00 | 0.00 | 84 | 1024.6 |
| 20260831021421 | 74 | 0 | 0.0 | 6.0 | 0.00 | 0.00 | 0.00 | 84 | 1024.5 |
| 20260831020921 | 74 | 0 | 0.0 | 6.0 | 0.00 | 0.00 | 0.00 | 84 | 1024.5 |
| 20260831020422 | 74 | 0 | 0.0 | 5.0 | 0.00 | 0.00 | 0.00 | 84 | 1024.4 |
| 20260831015921 | 74 | 0 | 0.0 | 5.0 | 0.00 | 0.00 | 0.00 | 84 | 1024.5 |
| 20260831015421 | 74 | 0 | 0.0 | 5.0 | 0.00 | 0.00 | 0.00 | 84 | 1024.6 |
| 20260831014921 | 74 | 0 | 0.0 | 5.0 | 0.00 | 0.00 | 0.00 | 84 | 1024.5 |
| 20260831014421 | 74 | 0 | 0.0 | 8.0 | 0.00 | 0.00 | 0.00 | 83 | 1024.5 |
| 20260831013921 | 74 | 194 | 1.0 | 8.0 | 0.00 | 0.00 | 0.00 | 83 | 1024.4 |
| 20260831013421 | 74 | 194 | 1.0 | 6.0 | 0.00 | 0.00 | 0.00 | 83 | 1024.3 |
| 20260831012921 | 74 | 193 | 2.0 | 7.0 | 0.00 | 0.00 | 0.00 | 83 | 1024.3 |
| 20260831012421 | 74 | 193 | 1.0 | 7.0 | 0.00 | 0.00 | 0.00 | 82 | 1024.3 |
| 20260831011923 | 74 | 194 | 2.0 | 7.0 | 0.00 | 0.00 | 0.00 | 82 | 1024.2 |